Year,Month,Day,Hour,Minute,Value (Times are PST for temperature in C)
2015,02,24,00,00,4.60
2015,02,24,00,01,4.60
2015,02,24,00,02,4.60
2015,02,24,00,03,4.60
2015,02,24,00,04,4.60
2015,02,24,00,05,4.60
2015,02,24,00,06,4.60
2015,02,24,00,07,4.60
2015,02,24,00,08,4.60
2015,02,24,00,09,4.60
2015,02,24,00,10,4.70
2015,02,24,00,11,4.70
2015,02,24,00,12,4.70
2015,02,24,00,13,4.70
2015,02,24,00,14,4.70
2015,02,24,00,15,4.70
2015,02,24,00,16,4.70
2015,02,24,00,17,4.70
2015,02,24,00,18,4.70
2015,02,24,00,19,4.60
2015,02,24,00,20,4.60
2015,02,24,00,21,4.60
2015,02,24,00,22,4.60
2015,02,24,00,23,4.60
2015,02,24,00,24,4.60
2015,02,24,00,25,4.50
2015,02,24,00,26,4.50
2015,02,24,00,27,4.40
2015,02,24,00,28,4.30
2015,02,24,00,29,4.30
2015,02,24,00,30,4.20
2015,02,24,00,31,4.20
2015,02,24,00,32,4.10
2015,02,24,00,33,4.00
2015,02,24,00,34,4.00
2015,02,24,00,35,3.90
2015,02,24,00,36,3.90
2015,02,24,00,37,3.80
2015,02,24,00,38,3.80
2015,02,24,00,39,3.80
2015,02,24,00,40,3.70
2015,02,24,00,41,3.70
2015,02,24,00,42,3.60
2015,02,24,00,43,3.60
2015,02,24,00,44,3.60
2015,02,24,00,45,3.50
2015,02,24,00,46,3.50
2015,02,24,00,47,3.40
2015,02,24,00,48,3.40
2015,02,24,00,49,3.40
2015,02,24,00,50,3.40
2015,02,24,00,51,3.30
2015,02,24,00,52,3.30
2015,02,24,00,53,3.40
2015,02,24,00,54,3.40
2015,02,24,00,55,3.40
2015,02,24,00,56,3.40
2015,02,24,00,57,3.40
2015,02,24,00,58,3.40
2015,02,24,00,59,3.40
2015,02,24,01,00,3.40
2015,02,24,01,01,3.40
2015,02,24,01,02,3.40
2015,02,24,01,03,3.30
2015,02,24,01,04,3.30
2015,02,24,01,05,3.30
2015,02,24,01,06,3.30
2015,02,24,01,07,3.30
2015,02,24,01,08,3.30
2015,02,24,01,09,3.40
2015,02,24,01,10,3.40
2015,02,24,01,11,3.40
2015,02,24,01,12,3.40
2015,02,24,01,13,3.40
2015,02,24,01,14,3.40
2015,02,24,01,15,3.40
2015,02,24,01,16,3.50
2015,02,24,01,17,3.50
2015,02,24,01,18,3.60
2015,02,24,01,19,3.60
2015,02,24,01,20,3.70
2015,02,24,01,21,3.80
2015,02,24,01,22,3.80
2015,02,24,01,23,3.90
2015,02,24,01,24,3.90
2015,02,24,01,25,4.00
2015,02,24,01,26,4.10
2015,02,24,01,27,4.10
2015,02,24,01,28,4.20
2015,02,24,01,29,4.20
2015,02,24,01,30,4.20
2015,02,24,01,31,4.20
2015,02,24,01,32,4.20
2015,02,24,01,33,4.10
2015,02,24,01,34,4.20
2015,02,24,01,35,4.20
2015,02,24,01,36,4.20
2015,02,24,01,37,4.20
2015,02,24,01,38,4.20
2015,02,24,01,39,4.20
2015,02,24,01,40,4.20
2015,02,24,01,41,4.20
2015,02,24,01,42,4.20
2015,02,24,01,43,4.20
2015,02,24,01,44,4.20
2015,02,24,01,45,4.20
2015,02,24,01,46,4.20
2015,02,24,01,47,4.20
2015,02,24,01,48,4.20
2015,02,24,01,49,4.30
2015,02,24,01,50,4.30
2015,02,24,01,51,4.30
2015,02,24,01,52,4.40
2015,02,24,01,53,4.40
2015,02,24,01,54,4.40
2015,02,24,01,55,4.50
2015,02,24,01,56,4.50
2015,02,24,01,57,4.60
2015,02,24,01,58,4.60
2015,02,24,01,59,4.60
2015,02,24,02,00,4.60
2015,02,24,02,01,4.60
2015,02,24,02,02,4.60
2015,02,24,02,03,4.60
2015,02,24,02,04,4.60
2015,02,24,02,05,4.60
2015,02,24,02,06,4.50
2015,02,24,02,07,4.50
2015,02,24,02,08,4.50
2015,02,24,02,09,4.40
2015,02,24,02,10,4.40
2015,02,24,02,11,4.40
2015,02,24,02,12,4.40
2015,02,24,02,13,4.40
2015,02,24,02,14,4.40
2015,02,24,02,15,4.40
2015,02,24,02,16,4.40
2015,02,24,02,17,4.30
2015,02,24,02,18,4.30
2015,02,24,02,19,4.30
2015,02,24,02,20,4.30
2015,02,24,02,21,4.30
2015,02,24,02,22,4.30
2015,02,24,02,23,4.30
2015,02,24,02,24,4.30
2015,02,24,02,25,4.30
2015,02,24,02,26,4.30
2015,02,24,02,27,4.30
2015,02,24,02,28,4.30
2015,02,24,02,29,4.40
2015,02,24,02,30,4.40
2015,02,24,02,31,4.40
2015,02,24,02,32,4.40
2015,02,24,02,33,4.40
2015,02,24,02,34,4.40
2015,02,24,02,35,4.40
2015,02,24,02,36,4.40
2015,02,24,02,37,4.40
2015,02,24,02,38,4.40
2015,02,24,02,39,4.40
2015,02,24,02,40,4.40
2015,02,24,02,41,4.40
2015,02,24,02,42,4.30
2015,02,24,02,43,4.30
2015,02,24,02,44,4.30
2015,02,24,02,45,4.30
2015,02,24,02,46,4.20
2015,02,24,02,47,4.20
2015,02,24,02,48,4.20
2015,02,24,02,49,4.20
2015,02,24,02,50,4.20
2015,02,24,02,51,4.20
2015,02,24,02,52,4.20
2015,02,24,02,53,4.20
2015,02,24,02,54,4.20
2015,02,24,02,55,4.20
2015,02,24,02,56,4.20
2015,02,24,02,57,4.20
2015,02,24,02,58,4.20
2015,02,24,02,59,4.20
2015,02,24,03,00,4.30
2015,02,24,03,01,4.20
2015,02,24,03,02,4.20
2015,02,24,03,03,4.20
2015,02,24,03,04,4.20
2015,02,24,03,05,4.20
2015,02,24,03,06,4.20
2015,02,24,03,07,4.10
2015,02,24,03,08,4.10
2015,02,24,03,09,4.00
2015,02,24,03,10,4.00
2015,02,24,03,11,3.90
2015,02,24,03,12,3.90
2015,02,24,03,13,3.80
2015,02,24,03,14,3.80
2015,02,24,03,15,3.70
2015,02,24,03,16,3.70
2015,02,24,03,17,3.70
2015,02,24,03,18,3.70
2015,02,24,03,19,3.60
2015,02,24,03,20,3.60
2015,02,24,03,21,3.60
2015,02,24,03,22,3.60
2015,02,24,03,23,3.60
2015,02,24,03,24,3.60
2015,02,24,03,25,3.60
2015,02,24,03,26,3.60
2015,02,24,03,27,3.60
2015,02,24,03,28,3.60
2015,02,24,03,29,3.60
2015,02,24,03,30,3.70
2015,02,24,03,31,3.70
2015,02,24,03,32,3.70
2015,02,24,03,33,3.70
2015,02,24,03,34,3.70
2015,02,24,03,35,3.70
2015,02,24,03,36,3.80
2015,02,24,03,37,3.80
2015,02,24,03,38,3.80
2015,02,24,03,39,3.80
2015,02,24,03,40,3.80
2015,02,24,03,41,3.90
2015,02,24,03,42,4.00
2015,02,24,03,43,4.00
2015,02,24,03,44,4.00
2015,02,24,03,45,4.00
2015,02,24,03,46,3.90
2015,02,24,03,47,3.90
2015,02,24,03,48,3.80
2015,02,24,03,49,3.80
2015,02,24,03,50,3.70
2015,02,24,03,51,3.70
2015,02,24,03,52,3.60
2015,02,24,03,53,3.60
2015,02,24,03,54,3.50
2015,02,24,03,55,3.50
2015,02,24,03,56,3.50
2015,02,24,03,57,3.40
2015,02,24,03,58,3.40
2015,02,24,03,59,3.40
2015,02,24,04,00,3.30
2015,02,24,04,01,3.30
2015,02,24,04,02,3.30
2015,02,24,04,03,3.20
2015,02,24,04,04,3.20
2015,02,24,04,05,3.10
2015,02,24,04,06,3.10
2015,02,24,04,07,3.10
2015,02,24,04,08,3.00
2015,02,24,04,09,3.00
2015,02,24,04,10,3.00
2015,02,24,04,11,3.10
2015,02,24,04,12,3.10
2015,02,24,04,13,3.10
2015,02,24,04,14,3.10
2015,02,24,04,15,3.10
2015,02,24,04,16,3.00
2015,02,24,04,17,3.00
2015,02,24,04,18,3.00
2015,02,24,04,19,3.00
2015,02,24,04,20,2.90
2015,02,24,04,21,2.90
2015,02,24,04,22,2.90
2015,02,24,04,23,2.80
2015,02,24,04,24,2.80
2015,02,24,04,25,2.80
2015,02,24,04,26,2.70
2015,02,24,04,27,2.70
2015,02,24,04,28,2.70
2015,02,24,04,29,2.70
2015,02,24,04,30,2.60
2015,02,24,04,31,2.50
2015,02,24,04,32,2.50
2015,02,24,04,33,2.40
2015,02,24,04,34,2.40
2015,02,24,04,35,2.40
2015,02,24,04,36,2.40
2015,02,24,04,37,2.40
2015,02,24,04,38,2.40
2015,02,24,04,39,2.50
2015,02,24,04,40,2.50
2015,02,24,04,41,2.50
2015,02,24,04,42,2.50
2015,02,24,04,43,2.50
2015,02,24,04,44,2.50
2015,02,24,04,45,2.60
2015,02,24,04,46,2.60
2015,02,24,04,47,2.60
2015,02,24,04,48,2.60
2015,02,24,04,49,2.70
2015,02,24,04,50,2.70
2015,02,24,04,51,2.70
2015,02,24,04,52,2.70
2015,02,24,04,53,2.70
2015,02,24,04,54,2.70
2015,02,24,04,55,2.50
2015,02,24,04,56,2.40
2015,02,24,04,57,2.30
2015,02,24,04,58,2.30
2015,02,24,04,59,2.20
2015,02,24,05,00,2.20
2015,02,24,05,01,2.20
2015,02,24,05,02,2.20
2015,02,24,05,03,2.20
2015,02,24,05,04,2.20
2015,02,24,05,05,2.20
2015,02,24,05,06,2.20
2015,02,24,05,07,2.10
2015,02,24,05,08,2.10
2015,02,24,05,09,2.10
2015,02,24,05,10,2.10
2015,02,24,05,11,2.10
2015,02,24,05,12,2.10
2015,02,24,05,13,2.10
2015,02,24,05,14,2.10
2015,02,24,05,15,2.10
2015,02,24,05,16,2.20
2015,02,24,05,17,2.20
2015,02,24,05,18,2.30
2015,02,24,05,19,2.30
2015,02,24,05,20,2.30
2015,02,24,05,21,2.30
2015,02,24,05,22,2.40
2015,02,24,05,23,2.40
2015,02,24,05,24,2.40
2015,02,24,05,25,2.40
2015,02,24,05,26,2.40
2015,02,24,05,27,2.40
2015,02,24,05,28,2.40
2015,02,24,05,29,2.40
2015,02,24,05,30,2.40
2015,02,24,05,31,2.40
2015,02,24,05,32,2.40
2015,02,24,05,33,2.40
2015,02,24,05,34,2.40
2015,02,24,05,35,2.40
2015,02,24,05,36,2.40
2015,02,24,05,37,2.40
2015,02,24,05,38,2.40
2015,02,24,05,39,2.40
2015,02,24,05,40,2.40
2015,02,24,05,41,2.40
2015,02,24,05,42,2.40
2015,02,24,05,43,2.40
2015,02,24,05,44,2.40
2015,02,24,05,45,2.40
2015,02,24,05,46,2.40
2015,02,24,05,47,2.40
2015,02,24,05,48,2.40
2015,02,24,05,49,2.50
2015,02,24,05,50,2.50
2015,02,24,05,51,2.50
2015,02,24,05,52,2.50
2015,02,24,05,53,2.60
2015,02,24,05,54,2.60
2015,02,24,05,55,2.60
2015,02,24,05,56,2.60
2015,02,24,05,57,2.60
2015,02,24,05,58,2.60
2015,02,24,05,59,2.60
2015,02,24,06,00,2.50
2015,02,24,06,01,2.50
2015,02,24,06,02,2.50
2015,02,24,06,03,2.50
2015,02,24,06,04,2.50
2015,02,24,06,05,2.50
2015,02,24,06,06,2.40
2015,02,24,06,07,2.40
2015,02,24,06,08,2.40
2015,02,24,06,09,2.40
2015,02,24,06,10,2.40
2015,02,24,06,11,2.40
2015,02,24,06,12,2.40
2015,02,24,06,13,2.40
2015,02,24,06,14,2.50
2015,02,24,06,15,2.50
2015,02,24,06,16,2.50
2015,02,24,06,17,2.50
2015,02,24,06,18,2.50
2015,02,24,06,19,2.60
2015,02,24,06,20,2.60
2015,02,24,06,21,2.60
2015,02,24,06,22,2.60
2015,02,24,06,23,2.70
2015,02,24,06,24,2.70
2015,02,24,06,25,2.70
2015,02,24,06,26,2.70
2015,02,24,06,27,2.60
2015,02,24,06,28,2.60
2015,02,24,06,29,2.60
2015,02,24,06,30,2.60
2015,02,24,06,31,2.60
2015,02,24,06,32,2.60
2015,02,24,06,33,2.70
2015,02,24,06,34,2.70
2015,02,24,06,35,2.70
2015,02,24,06,36,2.70
2015,02,24,06,37,2.80
2015,02,24,06,38,2.80
2015,02,24,06,39,2.80
2015,02,24,06,40,2.80
2015,02,24,06,41,2.80
2015,02,24,06,42,2.70
2015,02,24,06,43,2.80
2015,02,24,06,44,2.80
2015,02,24,06,45,2.80
2015,02,24,06,46,2.80
2015,02,24,06,47,2.80
2015,02,24,06,48,2.80
2015,02,24,06,49,2.80
2015,02,24,06,50,2.80
2015,02,24,06,51,2.80
2015,02,24,06,52,2.80
2015,02,24,06,53,2.80
2015,02,24,06,54,2.80
2015,02,24,06,55,2.80
2015,02,24,06,56,2.80
2015,02,24,06,57,2.80
2015,02,24,06,58,2.80
2015,02,24,06,59,2.80
2015,02,24,07,00,2.80
2015,02,24,07,01,2.80
2015,02,24,07,02,2.80
2015,02,24,07,03,2.80
2015,02,24,07,04,2.90
2015,02,24,07,05,2.90
2015,02,24,07,06,2.90
2015,02,24,07,07,2.90
2015,02,24,07,08,2.90
2015,02,24,07,09,2.90
2015,02,24,07,10,2.90
2015,02,24,07,11,2.90
2015,02,24,07,12,3.00
2015,02,24,07,13,3.00
2015,02,24,07,14,3.00
2015,02,24,07,15,3.00
2015,02,24,07,16,3.00
2015,02,24,07,17,3.00
2015,02,24,07,18,3.10
2015,02,24,07,19,3.10
2015,02,24,07,20,3.10
2015,02,24,07,21,3.10
2015,02,24,07,22,3.10
2015,02,24,07,23,3.10
2015,02,24,07,24,3.00
2015,02,24,07,25,3.00
2015,02,24,07,26,3.00
2015,02,24,07,27,3.00
2015,02,24,07,28,3.00
2015,02,24,07,29,3.00
2015,02,24,07,30,2.90
2015,02,24,07,31,2.90
2015,02,24,07,32,2.90
2015,02,24,07,33,2.90
2015,02,24,07,34,2.90
2015,02,24,07,35,2.90
2015,02,24,07,36,2.90
2015,02,24,07,37,2.90
2015,02,24,07,38,2.90
2015,02,24,07,39,2.90
2015,02,24,07,40,2.90
2015,02,24,07,41,2.90
2015,02,24,07,42,2.90
2015,02,24,07,43,2.90
2015,02,24,07,44,2.90
2015,02,24,07,45,2.90
2015,02,24,07,46,2.90
2015,02,24,07,47,2.90
2015,02,24,07,48,2.90
2015,02,24,07,49,2.90
2015,02,24,07,50,2.80
2015,02,24,07,51,2.80
2015,02,24,07,52,2.80
2015,02,24,07,53,2.80
2015,02,24,07,54,2.80
2015,02,24,07,55,2.80
2015,02,24,07,56,2.70
2015,02,24,07,57,2.70
2015,02,24,07,58,2.70
2015,02,24,07,59,2.80
2015,02,24,08,00,2.80
2015,02,24,08,01,2.80
2015,02,24,08,02,2.80
2015,02,24,08,03,2.80
2015,02,24,08,04,2.80
2015,02,24,08,05,2.80
2015,02,24,08,06,2.80
2015,02,24,08,07,2.80
2015,02,24,08,08,2.90
2015,02,24,08,09,2.90
2015,02,24,08,10,2.90
2015,02,24,08,11,3.00
2015,02,24,08,12,3.00
2015,02,24,08,13,3.10
2015,02,24,08,14,3.10
2015,02,24,08,15,3.20
2015,02,24,08,16,3.20
2015,02,24,08,17,3.20
2015,02,24,08,18,3.30
2015,02,24,08,19,3.30
2015,02,24,08,20,3.30
2015,02,24,08,21,3.30
2015,02,24,08,22,3.40
2015,02,24,08,23,3.40
2015,02,24,08,24,3.40
2015,02,24,08,25,3.40
2015,02,24,08,26,3.50
2015,02,24,08,27,3.50
2015,02,24,08,28,3.50
2015,02,24,08,29,3.50
2015,02,24,08,30,3.50
2015,02,24,08,31,3.50
2015,02,24,08,32,3.50
2015,02,24,08,33,3.50
2015,02,24,08,34,3.50
2015,02,24,08,35,3.50
2015,02,24,08,36,3.50
2015,02,24,08,37,3.60
2015,02,24,08,38,3.60
2015,02,24,08,39,3.60
2015,02,24,08,40,3.70
2015,02,24,08,41,3.70
2015,02,24,08,42,3.70
2015,02,24,08,43,3.80
2015,02,24,08,44,3.90
2015,02,24,08,45,3.90
2015,02,24,08,46,3.90
2015,02,24,08,47,4.00
2015,02,24,08,48,4.00
2015,02,24,08,49,4.00
2015,02,24,08,50,4.10
2015,02,24,08,51,4.10
2015,02,24,08,52,4.10
2015,02,24,08,53,4.10
2015,02,24,08,54,4.10
2015,02,24,08,55,4.10
2015,02,24,08,56,4.10
2015,02,24,08,57,4.10
2015,02,24,08,58,4.10
2015,02,24,08,59,4.20
2015,02,24,09,00,4.20
2015,02,24,09,01,4.30
2015,02,24,09,02,4.30
2015,02,24,09,03,4.30
2015,02,24,09,04,4.30
2015,02,24,09,05,4.30
2015,02,24,09,06,4.30
2015,02,24,09,07,4.30
2015,02,24,09,08,4.40
2015,02,24,09,09,4.30
2015,02,24,09,10,4.30
2015,02,24,09,11,4.30
2015,02,24,09,12,4.30
2015,02,24,09,13,4.30
2015,02,24,09,14,4.30
2015,02,24,09,15,4.30
2015,02,24,09,16,4.30
2015,02,24,09,17,4.30
2015,02,24,09,18,4.30
2015,02,24,09,19,4.30
2015,02,24,09,20,4.30
2015,02,24,09,21,4.30
2015,02,24,09,22,4.30
2015,02,24,09,23,4.30
2015,02,24,09,24,4.30
2015,02,24,09,25,4.30
2015,02,24,09,26,4.30
2015,02,24,09,27,4.30
2015,02,24,09,28,4.30
2015,02,24,09,29,4.40
2015,02,24,09,30,4.40
2015,02,24,09,31,4.40
2015,02,24,09,32,4.40
2015,02,24,09,33,4.50
2015,02,24,09,34,4.50
2015,02,24,09,35,4.60
2015,02,24,09,36,4.70
2015,02,24,09,37,4.80
2015,02,24,09,38,4.80
2015,02,24,09,39,4.90
2015,02,24,09,40,5.00
2015,02,24,09,41,5.10
2015,02,24,09,42,5.20
2015,02,24,09,43,5.30
2015,02,24,09,44,5.50
2015,02,24,09,45,5.60
2015,02,24,09,46,5.80
2015,02,24,09,47,5.90
2015,02,24,09,48,6.00
2015,02,24,09,49,6.10
2015,02,24,09,50,6.20
2015,02,24,09,51,6.30
2015,02,24,09,52,6.40
2015,02,24,09,53,6.40
2015,02,24,09,54,6.40
2015,02,24,09,55,6.40
2015,02,24,09,56,6.50
2015,02,24,09,57,6.60
2015,02,24,09,58,6.70
2015,02,24,09,59,6.80
2015,02,24,10,00,6.90
2015,02,24,10,01,7.00
2015,02,24,10,02,7.10
2015,02,24,10,03,7.20
2015,02,24,10,04,7.30
2015,02,24,10,05,7.40
2015,02,24,10,06,7.50
2015,02,24,10,07,7.50
2015,02,24,10,08,7.60
2015,02,24,10,09,7.70
2015,02,24,10,10,7.70
2015,02,24,10,11,7.80
2015,02,24,10,12,7.80
2015,02,24,10,13,7.80
2015,02,24,10,14,7.80
2015,02,24,10,15,7.80
2015,02,24,10,16,7.90
2015,02,24,10,17,7.90
2015,02,24,10,18,8.00
2015,02,24,10,19,8.00
2015,02,24,10,20,8.00
2015,02,24,10,21,8.00
2015,02,24,10,22,8.00
2015,02,24,10,23,7.90
2015,02,24,10,24,7.90
2015,02,24,10,25,7.80
2015,02,24,10,26,7.80
2015,02,24,10,27,7.80
2015,02,24,10,28,7.80
2015,02,24,10,29,7.80
2015,02,24,10,30,7.90
2015,02,24,10,31,8.00
2015,02,24,10,32,8.00
2015,02,24,10,33,8.00
2015,02,24,10,34,8.10
2015,02,24,10,35,8.10
2015,02,24,10,36,8.10
2015,02,24,10,37,8.10
2015,02,24,10,38,8.10
2015,02,24,10,39,8.10
2015,02,24,10,40,8.10
2015,02,24,10,41,8.20
2015,02,24,10,42,8.20
2015,02,24,10,43,8.20
2015,02,24,10,44,8.30
2015,02,24,10,45,8.30
2015,02,24,10,46,8.20
2015,02,24,10,47,8.20
2015,02,24,10,48,8.20
2015,02,24,10,49,8.10
2015,02,24,10,50,8.10
2015,02,24,10,51,8.10
2015,02,24,10,52,8.20
2015,02,24,10,53,8.20
2015,02,24,10,54,8.20
2015,02,24,10,55,8.20
2015,02,24,10,56,8.20
2015,02,24,10,57,8.20
2015,02,24,10,58,8.20
2015,02,24,10,59,8.30
2015,02,24,11,00,8.40
2015,02,24,11,01,8.30
2015,02,24,11,02,8.30
2015,02,24,11,03,8.30
2015,02,24,11,04,8.40
2015,02,24,11,05,8.30
2015,02,24,11,06,8.30
2015,02,24,11,07,8.30
2015,02,24,11,08,8.30
2015,02,24,11,09,8.30
2015,02,24,11,10,8.40
2015,02,24,11,11,8.40
2015,02,24,11,12,8.50
2015,02,24,11,13,8.50
2015,02,24,11,14,8.60
2015,02,24,11,15,8.60
2015,02,24,11,16,8.60
2015,02,24,11,17,8.60
2015,02,24,11,18,8.50
2015,02,24,11,19,8.60
2015,02,24,11,20,8.60
2015,02,24,11,21,8.60
2015,02,24,11,22,8.60
2015,02,24,11,23,8.70
2015,02,24,11,24,8.70
2015,02,24,11,25,8.70
2015,02,24,11,26,8.70
2015,02,24,11,27,8.80
2015,02,24,11,28,8.80
2015,02,24,11,29,8.90
2015,02,24,11,30,9.00
2015,02,24,11,31,9.10
2015,02,24,11,32,9.20
2015,02,24,11,33,9.20
2015,02,24,11,34,9.20
2015,02,24,11,35,9.20
2015,02,24,11,36,9.30
2015,02,24,11,37,9.30
2015,02,24,11,38,9.30
2015,02,24,11,39,9.40
2015,02,24,11,40,9.40
2015,02,24,11,41,9.50
2015,02,24,11,42,9.60
2015,02,24,11,43,9.70
2015,02,24,11,44,9.70
2015,02,24,11,45,9.70
2015,02,24,11,46,9.80
2015,02,24,11,47,9.80
2015,02,24,11,48,9.80
2015,02,24,11,49,9.80
2015,02,24,11,50,9.70
2015,02,24,11,51,9.70
2015,02,24,11,52,9.60
2015,02,24,11,53,9.60
2015,02,24,11,54,9.50
2015,02,24,11,55,9.40
2015,02,24,11,56,9.40
2015,02,24,11,57,9.40
2015,02,24,11,58,9.40
2015,02,24,11,59,9.40
2015,02,24,12,00,9.40
2015,02,24,12,01,9.40
2015,02,24,12,02,9.40
2015,02,24,12,03,9.40
2015,02,24,12,04,9.40
2015,02,24,12,05,9.40
2015,02,24,12,06,9.40
2015,02,24,12,07,9.40
2015,02,24,12,08,9.50
2015,02,24,12,09,9.60
2015,02,24,12,10,9.60
2015,02,24,12,11,9.70
2015,02,24,12,12,9.80
2015,02,24,12,13,9.80
2015,02,24,12,14,9.80
2015,02,24,12,15,9.90
2015,02,24,12,16,9.90
2015,02,24,12,17,10.00
2015,02,24,12,18,10.00
2015,02,24,12,19,10.00
2015,02,24,12,20,10.00
2015,02,24,12,21,10.00
2015,02,24,12,22,9.90
2015,02,24,12,23,9.90
2015,02,24,12,24,9.80
2015,02,24,12,25,9.80
2015,02,24,12,26,9.80
2015,02,24,12,27,9.80
2015,02,24,12,28,9.90
2015,02,24,12,29,9.90
2015,02,24,12,30,9.90
2015,02,24,12,31,10.00
2015,02,24,12,32,10.00
2015,02,24,12,33,10.00
2015,02,24,12,34,10.00
2015,02,24,12,35,10.00
2015,02,24,12,36,10.00
2015,02,24,12,37,9.90
2015,02,24,12,38,9.80
2015,02,24,12,39,9.80
2015,02,24,12,40,9.80
2015,02,24,12,41,9.80
2015,02,24,12,42,9.80
2015,02,24,12,43,9.80
2015,02,24,12,44,9.80
2015,02,24,12,45,9.80
2015,02,24,12,46,9.80
2015,02,24,12,47,9.70
2015,02,24,12,48,9.70
2015,02,24,12,49,9.80
2015,02,24,12,50,9.80
2015,02,24,12,51,9.80
2015,02,24,12,52,9.80
2015,02,24,12,53,9.80
2015,02,24,12,54,9.80
2015,02,24,12,55,9.90
2015,02,24,12,56,9.90
2015,02,24,12,57,10.00
2015,02,24,12,58,10.00
2015,02,24,12,59,10.00
2015,02,24,13,00,10.00
2015,02,24,13,01,10.10
2015,02,24,13,02,10.10
2015,02,24,13,03,10.20
2015,02,24,13,04,10.30
2015,02,24,13,05,10.30
2015,02,24,13,06,10.30
2015,02,24,13,07,10.40
2015,02,24,13,08,10.50
2015,02,24,13,09,10.60
2015,02,24,13,10,10.60
2015,02,24,13,11,10.70
2015,02,24,13,12,10.70
2015,02,24,13,13,10.70
2015,02,24,13,14,10.90
2015,02,24,13,15,10.90
2015,02,24,13,16,11.00
2015,02,24,13,17,11.00
2015,02,24,13,18,11.00
2015,02,24,13,19,11.00
2015,02,24,13,20,11.00
2015,02,24,13,21,11.00
2015,02,24,13,22,11.00
2015,02,24,13,23,11.00
2015,02,24,13,24,11.00
2015,02,24,13,25,11.00
2015,02,24,13,26,10.90
2015,02,24,13,27,10.90
2015,02,24,13,28,10.90
2015,02,24,13,29,10.90
2015,02,24,13,30,10.90
2015,02,24,13,31,11.00
2015,02,24,13,32,11.00
2015,02,24,13,33,11.10
2015,02,24,13,34,11.00
2015,02,24,13,35,11.00
2015,02,24,13,36,10.90
2015,02,24,13,37,10.80
2015,02,24,13,38,10.60
2015,02,24,13,39,10.50
2015,02,24,13,40,10.40
2015,02,24,13,41,10.40
2015,02,24,13,42,10.30
2015,02,24,13,43,10.30
2015,02,24,13,44,10.30
2015,02,24,13,45,10.40
2015,02,24,13,46,10.40
2015,02,24,13,47,10.40
2015,02,24,13,48,10.30
2015,02,24,13,49,10.30
2015,02,24,13,50,10.30
2015,02,24,13,51,10.30
2015,02,24,13,52,10.30
2015,02,24,13,53,10.40
2015,02,24,13,54,10.40
2015,02,24,13,55,10.40
2015,02,24,13,56,10.50
2015,02,24,13,57,10.50
2015,02,24,13,58,10.50
2015,02,24,13,59,10.50
2015,02,24,14,00,10.50
2015,02,24,14,01,10.50
2015,02,24,14,02,10.50
2015,02,24,14,03,10.60
2015,02,24,14,04,10.60
2015,02,24,14,05,10.60
2015,02,24,14,06,10.60
2015,02,24,14,07,10.60
2015,02,24,14,08,10.60
2015,02,24,14,09,10.50
2015,02,24,14,10,10.50
2015,02,24,14,11,10.50
2015,02,24,14,12,10.40
2015,02,24,14,13,10.40
2015,02,24,14,14,10.40
2015,02,24,14,15,10.40
2015,02,24,14,16,10.40
2015,02,24,14,17,10.50
2015,02,24,14,18,10.50
2015,02,24,14,19,10.50
2015,02,24,14,20,10.50
2015,02,24,14,21,10.50
2015,02,24,14,22,10.50
2015,02,24,14,23,10.50
2015,02,24,14,24,10.50
2015,02,24,14,25,10.50
2015,02,24,14,26,10.50
2015,02,24,14,27,10.50
2015,02,24,14,28,10.60
2015,02,24,14,29,10.60
2015,02,24,14,30,10.70
2015,02,24,14,31,10.70
2015,02,24,14,32,10.80
2015,02,24,14,33,10.90
2015,02,24,14,34,10.90
2015,02,24,14,35,10.90
2015,02,24,14,36,11.00
2015,02,24,14,37,11.10
2015,02,24,14,38,11.20
2015,02,24,14,39,11.30
2015,02,24,14,40,11.40
2015,02,24,14,41,11.40
2015,02,24,14,42,11.40
2015,02,24,14,43,11.40
2015,02,24,14,44,11.40
2015,02,24,14,45,11.40
2015,02,24,14,46,11.40
2015,02,24,14,47,11.40
2015,02,24,14,48,11.50
2015,02,24,14,49,11.50
2015,02,24,14,50,11.50
2015,02,24,14,51,11.60
2015,02,24,14,52,11.60
2015,02,24,14,53,11.60
2015,02,24,14,54,11.50
2015,02,24,14,55,11.50
2015,02,24,14,56,11.40
2015,02,24,14,57,11.40
2015,02,24,14,58,11.40
2015,02,24,14,59,11.40
2015,02,24,15,00,11.40
2015,02,24,15,01,11.40
2015,02,24,15,02,11.40
2015,02,24,15,03,11.50
2015,02,24,15,04,11.60
2015,02,24,15,05,11.60
2015,02,24,15,06,11.70
2015,02,24,15,07,11.70
2015,02,24,15,08,11.70
2015,02,24,15,09,11.60
2015,02,24,15,10,11.60
2015,02,24,15,11,11.50
2015,02,24,15,12,11.40
2015,02,24,15,13,11.40
2015,02,24,15,14,11.40
2015,02,24,15,15,11.30
2015,02,24,15,16,11.30
2015,02,24,15,17,11.20
2015,02,24,15,18,11.20
2015,02,24,15,19,11.10
2015,02,24,15,20,11.10
2015,02,24,15,21,11.10
2015,02,24,15,22,11.10
2015,02,24,15,23,11.10
2015,02,24,15,24,11.00
2015,02,24,15,25,11.00
2015,02,24,15,26,10.90
2015,02,24,15,27,10.90
2015,02,24,15,28,10.80
2015,02,24,15,29,10.80
2015,02,24,15,30,10.70
2015,02,24,15,31,10.70
2015,02,24,15,32,10.70
2015,02,24,15,33,10.60
2015,02,24,15,34,10.60
2015,02,24,15,35,10.60
2015,02,24,15,36,10.60
2015,02,24,15,37,10.60
2015,02,24,15,38,10.60
2015,02,24,15,39,10.60
2015,02,24,15,40,10.60
2015,02,24,15,41,10.60
2015,02,24,15,42,10.60
2015,02,24,15,43,10.60
2015,02,24,15,44,10.60
2015,02,24,15,45,10.50
2015,02,24,15,46,10.50
2015,02,24,15,47,10.60
2015,02,24,15,48,10.60
2015,02,24,15,49,10.60
2015,02,24,15,50,10.60
2015,02,24,15,51,10.60
2015,02,24,15,52,10.50
2015,02,24,15,53,10.50
2015,02,24,15,54,10.50
2015,02,24,15,55,10.50
2015,02,24,15,56,10.50
2015,02,24,15,57,10.50
2015,02,24,15,58,10.50
2015,02,24,15,59,10.50
2015,02,24,16,00,10.60
2015,02,24,16,01,10.60
2015,02,24,16,02,10.50
2015,02,24,16,03,10.50
2015,02,24,16,04,10.50
2015,02,24,16,05,10.50
2015,02,24,16,06,10.50
2015,02,24,16,07,10.50
2015,02,24,16,08,10.50
2015,02,24,16,09,10.60
2015,02,24,16,10,10.60
2015,02,24,16,11,10.50
2015,02,24,16,12,10.50
2015,02,24,16,13,10.50
2015,02,24,16,14,10.50
2015,02,24,16,15,10.50
2015,02,24,16,16,10.50
2015,02,24,16,17,10.50
2015,02,24,16,18,10.50
2015,02,24,16,19,10.50
2015,02,24,16,20,10.50
2015,02,24,16,21,10.50
2015,02,24,16,22,10.50
2015,02,24,16,23,10.40
2015,02,24,16,24,10.40
2015,02,24,16,25,10.40
2015,02,24,16,26,10.30
2015,02,24,16,27,10.20
2015,02,24,16,28,10.20
2015,02,24,16,29,10.20
2015,02,24,16,30,10.10
2015,02,24,16,31,10.10
2015,02,24,16,32,10.00
2015,02,24,16,33,10.00
2015,02,24,16,34,10.00
2015,02,24,16,35,9.90
2015,02,24,16,36,9.90
2015,02,24,16,37,9.90
2015,02,24,16,38,9.90
2015,02,24,16,39,9.90
2015,02,24,16,40,9.90
2015,02,24,16,41,9.90
2015,02,24,16,42,9.90
2015,02,24,16,43,9.90
2015,02,24,16,44,9.90
2015,02,24,16,45,9.90
2015,02,24,16,46,9.90
2015,02,24,16,47,9.90
2015,02,24,16,48,9.90
2015,02,24,16,49,9.90
2015,02,24,16,50,9.90
2015,02,24,16,51,9.90
2015,02,24,16,52,9.90
2015,02,24,16,53,9.90
2015,02,24,16,54,9.90
2015,02,24,16,55,9.90
2015,02,24,16,56,9.90
2015,02,24,16,57,9.90
2015,02,24,16,58,9.90
2015,02,24,16,59,9.90
2015,02,24,17,00,9.90
2015,02,24,17,01,9.90
2015,02,24,17,02,10.00
2015,02,24,17,03,10.00
2015,02,24,17,04,10.10
2015,02,24,17,05,10.20
2015,02,24,17,06,10.20
2015,02,24,17,07,10.20
2015,02,24,17,08,10.30
2015,02,24,17,09,10.30
2015,02,24,17,10,10.30
2015,02,24,17,11,10.30
2015,02,24,17,12,10.30
2015,02,24,17,13,10.20
2015,02,24,17,14,10.20
2015,02,24,17,15,10.20
2015,02,24,17,16,10.10
2015,02,24,17,17,10.00
2015,02,24,17,18,10.00
2015,02,24,17,19,9.90
2015,02,24,17,20,9.90
2015,02,24,17,21,9.80
2015,02,24,17,22,9.80
2015,02,24,17,23,9.70
2015,02,24,17,24,9.70
2015,02,24,17,25,9.60
2015,02,24,17,26,9.50
2015,02,24,17,27,9.50
2015,02,24,17,28,9.40
2015,02,24,17,29,9.40
2015,02,24,17,30,9.30
2015,02,24,17,31,9.30
2015,02,24,17,32,9.30
2015,02,24,17,33,9.20
2015,02,24,17,34,9.20
2015,02,24,17,35,9.20
2015,02,24,17,36,9.10
2015,02,24,17,37,9.10
2015,02,24,17,38,9.00
2015,02,24,17,39,8.90
2015,02,24,17,40,8.90
2015,02,24,17,41,8.80
2015,02,24,17,42,8.80
2015,02,24,17,43,8.70
2015,02,24,17,44,8.70
2015,02,24,17,45,8.60
2015,02,24,17,46,8.60
2015,02,24,17,47,8.50
2015,02,24,17,48,8.50
2015,02,24,17,49,8.40
2015,02,24,17,50,8.30
2015,02,24,17,51,8.30
2015,02,24,17,52,8.30
2015,02,24,17,53,8.20
2015,02,24,17,54,8.20
2015,02,24,17,55,8.10